Pearland, TX

11:06 AM CST on February 21, 2017 (GMT -0600)
Clover

Weather History for KLVJ - December, 2012

Change the Weather History Date:

Monday, December 3, 2012

  Actual Average (KEFD) Record (KEFD)
Temperature  
Mean Temperature 74 °F -  
Max Temperature 81 °F 66 °F 86 °F (2005)
Min Temperature 68 °F 48 °F 33 °F (1997)
Cooling Degree Days 10    
Growing Degree Days 24 (Base 50)    
Moisture  
Dew Point 66 °F    
Average Humidity 84    
Maximum Humidity 94    
Minimum Humidity 50    
Precipitation  
Precipitation 0.36 in - - ()
Sea Level Pressure  
Sea Level Pressure 30.08 in    
Wind  
Wind Speed 5 mph (SSE)    
Max Wind Speed 12 mph    
Max Gust Speed 20 mph    
Visibility 8 miles    
Events Rain    
Averages and records for this station are not official NWS values.
T = Trace of Precipitation, MM = Missing Value Source: NWS Daily Summary

Daily Weather History Graph

Daily Weather History Graph

Search for Another Location

Airport or City:

Trip Planner

Search our weather history database for the weather conditions in past years. The results will help you decide how hot, cold, wet, or windy it might be!

Date:

Astronomy

Dec. 03, 2012 Rise Set
Actual Time 7:00 AM CST 5:21 PM CST
Civil Twilight 6:34 AM CST 5:47 PM CST
Nautical Twilight 6:04 AM CST 6:17 PM CST
Astronomical Twilight 5:35 AM CST 6:46 PM CST
Moon 9:57 PM CST (12/3) 10:34 AM CST (12/3)
Length of Visible Light 11h 13m
Length of Day
10h 21m
Waning Gibbous, 78% of the Moon is Illuminated
Dec 3
Waning Gibbous
Dec 6
Last Quarter
Dec 13
New
Dec 19
First Quarter
Dec 28
Full

Hourly Weather History & Observations

Time (CST) Temp. Heat Index Dew Point Humidity Pressure Visibility Wind Dir Wind Speed Gust Speed Precip Events Conditions
12:53 AM 70.0 °F - 64.9 °F 84% 30.11 in 10.0 mi South 3.5 mph - N/A   Overcast
1:53 AM 70.0 °F - 64.9 °F 84% 30.09 in 10.0 mi SE 3.5 mph - N/A   Overcast
2:53 AM 70.0 °F - 64.0 °F 81% 30.08 in 10.0 mi Calm Calm - N/A   Overcast
3:53 AM 70.0 °F - 66.0 °F 87% 30.08 in 10.0 mi SSE 5.8 mph - 0.00 in   Overcast
4:16 AM 69.8 °F - 66.2 °F 88% 30.08 in 5.0 mi SSE 6.9 mph - 0.00 in Rain Light Rain
4:25 AM 69.8 °F - 66.2 °F 88% 30.08 in 3.0 mi SSE 4.6 mph - 0.01 in Rain Rain
4:37 AM 69.8 °F - 66.2 °F 88% 30.08 in 2.5 mi SSE 6.9 mph - 0.03 in Rain Rain
4:50 AM 69.8 °F - 66.2 °F 88% 30.07 in 5.0 mi SSE 5.8 mph - 0.03 in Rain Light Rain
4:53 AM 69.1 °F - 66.9 °F 93% 30.07 in 7.0 mi SSE 4.6 mph - 0.03 in Rain Light Rain
5:31 AM 69.8 °F - 66.2 °F 88% 30.08 in 10.0 mi SSE 5.8 mph - 0.00 in   Overcast
5:53 AM 69.1 °F - 66.0 °F 90% 30.08 in 9.0 mi SSE 5.8 mph - 0.01 in   Overcast
6:38 AM 69.8 °F - 66.2 °F 88% 30.09 in 5.0 mi SE 5.8 mph - 0.00 in Rain Light Rain
6:53 AM 69.1 °F - 66.9 °F 93% 30.09 in 10.0 mi SE 5.8 mph - 0.00 in   Overcast
7:01 AM 69.8 °F - 66.2 °F 88% 30.09 in 10.0 mi SSE 5.8 mph - N/A   Overcast
7:11 AM 69.8 °F - 66.2 °F 88% 30.09 in 7.0 mi SSE 4.6 mph - 0.01 in Rain Light Rain
7:40 AM 69.8 °F - 66.2 °F 88% 30.10 in 10.0 mi SSE 4.6 mph - 0.01 in   Overcast
7:53 AM 70.0 °F - 66.9 °F 90% 30.10 in 10.0 mi SSE 5.8 mph - 0.01 in   Overcast
9:53 AM 75.0 °F - 69.1 °F 82% 30.11 in 10.0 mi South 9.2 mph 17.3 mph N/A   Overcast
10:29 AM 73.4 °F - 69.8 °F 88% 30.11 in 9.0 mi South 8.1 mph - 0.00 in Rain Light Rain
10:53 AM 73.0 °F - 66.9 °F 81% 30.10 in 3.0 mi Variable 5.8 mph - 0.04 in Rain Heavy Rain
11:00 AM 71.6 °F - 68.0 °F 88% 30.10 in 1.8 mi South 5.8 mph - 0.09 in Rain Heavy Rain
11:10 AM 73.4 °F - 69.8 °F 88% 30.09 in 4.0 mi SSW 5.8 mph - 0.10 in Rain Light Rain
11:25 AM 73.4 °F - 68.0 °F 83% 30.09 in 2.5 mi South 10.4 mph - 0.17 in Rain Heavy Rain
11:33 AM 73.4 °F - 68.0 °F 83% 30.09 in 1.5 mi South 8.1 mph - 0.23 in Rain Rain
11:38 AM 73.4 °F - 69.8 °F 88% 30.09 in 4.0 mi SW 5.8 mph - 0.23 in Rain Rain
11:53 AM 73.0 °F - 68.0 °F 84% 30.08 in 7.0 mi SSW 6.9 mph - 0.25 in Rain Light Rain
12:24 PM 75.2 °F - 69.8 °F 83% 30.06 in 10.0 mi South 11.5 mph - 0.01 in   Mostly Cloudy
12:53 PM 73.0 °F - 66.0 °F 79% 30.05 in 7.0 mi SW 5.8 mph 17.3 mph 0.02 in Rain Light Rain
1:53 PM 80.1 °F 81.5 °F 63.0 °F 56% 30.03 in 10.0 mi SSW 11.5 mph 19.6 mph 0.00 in   Clear
2:53 PM 81.0 °F 81.7 °F 61.0 °F 50% 30.02 in 10.0 mi South 11.5 mph - N/A   Clear
3:53 PM 79.0 °F - 60.1 °F 52% 30.03 in 10.0 mi South 11.5 mph - N/A   Partly Cloudy
4:53 PM 78.1 °F - 62.1 °F 58% 30.04 in 10.0 mi South 9.2 mph - N/A   Partly Cloudy
5:53 PM 73.9 °F - 64.0 °F 71% 30.04 in 10.0 mi SSE 5.8 mph - N/A   Clear
6:53 PM 71.1 °F - 66.0 °F 84% 30.05 in 10.0 mi SSE 6.9 mph - N/A   Clear
7:53 PM 69.1 °F - 66.0 °F 90% 30.06 in 10.0 mi SSE 4.6 mph - N/A   Clear
8:53 PM 68.0 °F - 64.9 °F 90% 30.07 in 9.0 mi ESE 5.8 mph - N/A   Clear
9:53 PM 68.0 °F - 66.0 °F 93% 30.07 in 7.0 mi South 3.5 mph - N/A   Clear
10:53 PM 68.0 °F - 66.0 °F 93% 30.07 in 8.0 mi SSE 3.5 mph - N/A   Partly Cloudy
11:14 PM 68.0 °F - 66.2 °F 94% 30.07 in 7.0 mi SSE 4.6 mph - N/A   Scattered Clouds
11:37 PM 68.0 °F - 66.2 °F 94% 30.06 in 6.0 mi SSE 3.5 mph - N/A   Mostly Cloudy